Home > Weather > Bursa > Past weeks

Flag for Turkey Past Weather in Bursa, Turkey — Yesterday and Last 2 Weeks

Now
62 °F

Clear.


Feels Like: 62 °F
Forecast: 56 / 88 °F
Wind: 1 mph from Northeast

Location: Bursa

Current Time: May 30, 2016 at 2:09:32 AM

Latest Report: May 30, 2016 at 1:00 AM


Visibility: 6 mi

Pressure: 29.93 "Hg

Humidity: 88%

Dew Point: 58 °F

Location of BursaLocation

Past Weather in Bursa — Graph

°F

Bursa Temperature Yesterday

Maximum temperature yesterday: 83 °F (at 4:00 PM)
Minimum temperature yesterday: 54 °F (at 6:00 AM)
Average temperature yesterday: 67 °F

High & Low Weather Summary for the Past Weeks

 TemperatureHumidityPressure
High84 °F (May 15, 3:00 PM)99% (May 16, 6:00 AM)30.08 "Hg (May 16, 6:00 AM)
Low47 °F (May 19, 5:00 AM)28% (May 20, 3:00 PM)29.65 "Hg (May 25, 3:00 AM)
Average65 °F70%29.92 "Hg
* Reported May 15 3:00 AM — May 30 1:00 AM, Bursa, Weather by CustomWeather, © 2016

Note: Actual official high and low records may vary slightly from our data, if they occured in-between our weather recording intervals... More about our weather records

Advertising

Bursa Weather History for the Previous 24 Hours

Scroll right to see more
 ConditionsComfort  
Time TempWeatherWind HumidityBarometerVisibility
1:00 AM
Mon, May 30
62 °FClear.1 mph88%29.93 "Hg6 mi
12:00 AM65 °FClear.2 mph82%29.93 "Hg7 mi
11:00 PM
Sun, May 29
66 °FClear.3 mph83%29.94 "Hg7 mi
10:00 PM68 °FClear.1 mph74%29.93 "Hg9 mi
9:00 PM71 °FPassing clouds.1 mph68%29.93 "Hg9 mi
8:00 PM76 °FScattered clouds.1 mph58%29.93 "Hg9 mi
4:00 PM83 °FScattered clouds.5 mph48%29.94 "Hg9 mi
3:00 PM82 °FScattered clouds.5 mph49%29.94 "Hg9 mi
2:00 PM80 °FScattered clouds.2 mph48%29.95 "Hg9 mi
1:00 PM78 °FScattered clouds.5 mph52%29.96 "Hg9 mi
12:00 PM76 °FScattered clouds.6 mph55%29.99 "Hg9 mi
11:00 AM73 °FPassing clouds.2 mph62%30.00 "Hg9 mi
10:00 AM68 °FSunny.3 mph72%30.01 "Hg9 mi
9:00 AM63 °FScattered clouds.3 mph82%30.01 "Hg9 mi
8:00 AM60 °FScattered clouds.1 mph86%30.01 "Hg6 mi
7:00 AM57 °FPassing clouds.3 mph98%30.00 "Hg6 mi
6:00 AM54 °FSunny.1 mph99%29.99 "Hg6 mi
5:00 AM56 °FClear.2 mph98%29.98 "Hg6 mi
4:00 AM56 °FClear.No wind97%29.99 "Hg6 mi
3:00 AM57 °FClear.1 mph95%29.99 "Hg6 mi
2:00 AM56 °FClear.1 mph94%30.00 "Hg9 mi
Weather by CustomWeather, © 2016

See weather overviewHow to use our weather pages